[TLELIST] Archives

 

Current TLEs

September 16th 2007 PDT

HST 1 20580U 90037B 07257.61605997 +.00000306 +00000-0 +10900-4 0 09687 2 20580 028.4697 326.9443 0003334 326.9592 033.0790 15.00278280753407 ISS (ZARYA) 1 25544U 98067A 07259.49368444 .00009993 00000-0 64484-4 0 9872 2 25544 051.6369 352.7461 0009437 015.6943 093.8201 15.76839129505184 CXO 1 25867U 99040B 07260.20833333 .00000262 00000-0 10000-3 0 1132 2 25867 062.3602 087.2657 6363024 282.5703 358.3995 00.37804557 2592 ____________________________________________________________________ These 2-Line ...Continue Reading

Current TLEs

September 15th 2007 PDT

HST 1 20580U 90037B 07258.21477237 .00000306 00000-0 10871-4 0 9618 2 20580 028.4697 323.0410 0003328 332.9953 027.0467 15.00278448753499 ISS (ZARYA) 1 25544U 98067A 07258.35247432 .00010396 00000-0 66978-4 0 9801 2 25544 051.6372 358.6308 0009545 011.7592 095.2095 15.76816302505006 CXO 1 25867U 99040B 07257.54166667 +.00000226 +00000-0 +10000-3 0 01123 2 25867 062.3457 087.3049 6358127 282.6321 355.3212 00.37804805002585 ____________________________________________________________________ These 2-Line ...Continue Reading

Current TLEs

September 14th 2007 PDT

HST 1 20580U 90037B 07256.61820723 .00000336 00000-0 13214-4 0 9608 2 20580 028.4688 333.4601 0003546 315.8332 044.1975 15.00278185753255 ISS (ZARYA) 1 25544U 98067A 07257.39087503 .00011448 00000-0 73397-4 0 9751 2 25544 051.6377 003.5895 0009335 008.3836 036.3885 15.76799468504856 CXO 1 25867U 99040B 07254.91666667 .00000197 00000-0 10000-3 0 1112 2 25867 062.3313 087.3525 6354678 282.6891 357.9009 00.37805241 2570 ____________________________________________________________________ These 2-Line ...Continue Reading

Current TLEs

September 13th 2007 PDT

HST 1 20580U 90037B 07254.68902259 +.00000342 +00000-0 +13644-4 0 09613 2 20580 028.4687 346.0401 0003623 293.3149 066.7059 15.00277551752960 ISS (ZARYA) 1 25544U 98067A 07255.82315875 .00012322 00000-0 78817-4 0 9690 2 25544 051.6366 011.6751 0008809 002.3368 137.4270 15.76764337504605 CXO 1 25867U 99040B 07254.91666667 .00000197 00000-0 10000-3 0 1112 2 25867 062.3313 087.3525 6354678 282.6891 357.9009 00.37805241 2570 ____________________________________________________________________ These 2-Line ...Continue Reading

Current TLEs

September 12th 2007 PDT

HST 1 20580U 90037B 07253.69116845 +.00000353 +00000-0 +14523-4 0 09643 2 20580 028.4685 352.5469 0003655 281.7880 078.2297 15.00277258752812 ISS (ZARYA) 1 25544U 98067A 07255.49808975 .00012467 00000-0 79723-4 0 9676 2 25544 051.6371 013.3504 0008755 001.5580 091.7615 15.76756778504552 CXO 1 25867U 99040B 07254.91666667 .00000197 00000-0 10000-3 0 1112 2 25867 062.3313 087.3525 6354678 282.6891 357.9009 00.37805241 2570 ____________________________________________________________________ These 2-Line ...Continue Reading

Current TLEs

September 11th 2007 PDT

HST 1 20580U 90037B 07251.56241368 .00000331 00000-0 12823-4 0 9564 2 20580 028.4683 006.4282 0003809 259.0198 100.9963 15.00276259752496 ISS (ZARYA) 1 25544U 98067A 07254.54110510 .00013107 00000-0 83687-4 0 9599 2 25544 051.6366 018.2854 0008665 358.6987 058.8422 15.76734265504406 CXO 1 25867U 99040B 07254.91666667 .00000197 00000-0 10000-3 0 1112 2 25867 062.3313 087.3525 6354678 282.6891 357.9009 00.37805241 2570 ____________________________________________________________________ These 2-Line ...Continue Reading

Current TLEs

September 10th 2007 PDT

HST 1 20580U 90037B 07251.56241368 .00000331 00000-0 12823-4 0 9564 2 20580 028.4683 006.4282 0003809 259.0198 100.9963 15.00276259752496 ISS (ZARYA) 1 25544U 98067A 07253.52412622 .00014846 00000-0 94319-4 0 9534 2 25544 051.6371 023.5284 0008682 353.2936 047.7888 15.76712525504242 CXO 1 25867U 99040B 07252.29166667 .00000148 00000-0 10000-3 0 1101 2 25867 062.3226 087.4181 6350745 282.7376 000.4915 00.37803070 2565 ____________________________________________________________________ These 2-Line ...Continue Reading

Current TLEs

September 9th 2007 PDT

HST 1 20580U 90037B 07250.49803622 .00000303 00000-0 10594-4 0 9553 2 20580 028.4681 013.3687 0003901 247.9232 112.0938 15.00275672752335 ISS (ZARYA) 1 25544U 98067A 07251.36990321 .00016489 00000-0 10457-3 0 9424 2 25544 051.6365 034.6354 0008625 345.0972 060.2578 15.76650530503907 CXO 1 25867U 99040B 07252.29166667 .00000148 00000-0 10000-3 0 1101 2 25867 062.3226 087.4181 6350745 282.7376 000.4915 00.37803070 2565 ____________________________________________________________________ These 2-Line ...Continue Reading

Current TLEs

September 8th 2007 PDT

HST 1 20580U 90037B 07250.49803622 .00000303 00000-0 10594-4 0 9553 2 20580 028.4681 013.3687 0003901 247.9232 112.0938 15.00275672752335 ISS (ZARYA) 1 25544U 98067A 07251.36990321 .00016489 00000-0 10457-3 0 9424 2 25544 051.6365 034.6354 0008625 345.0972 060.2578 15.76650530503907 CXO 1 25867U 99040B 07252.29166667 .00000148 00000-0 10000-3 0 1101 2 25867 062.3226 087.4181 6350745 282.7376 000.4915 00.37803070 2565 ____________________________________________________________________ These 2-Line ...Continue Reading

Current TLEs

September 7th 2007 PDT

HST 1 20580U 90037B 07248.76842281 +.00000343 +00000-0 +13721-4 0 09632 2 20580 028.4678 024.6464 0003908 230.0156 130.0093 15.00275322752079 ISS (ZARYA) 1 25544U 98067A 07250.49337940 .00016222 00000-0 10309-3 0 9374 2 25544 051.6354 039.1525 0008586 341.2535 125.6861 15.76619516503768 CXO 1 25867U 99040B 07249.58333333 .00000098 00000-0 10000-3 0 1097 2 25867 062.3188 087.4735 6345872 282.8123 351.7340 00.37798799 2557 ____________________________________________________________________ These 2-Line ...Continue Reading
  • This mailing list is a public mailing list - anyone may join or leave, at any time.
  • This mailing list is announce-only.

International Space Station (ISS) / Hubble Space Telescope (HST) / Chandra X-Ray Observatory Orbital Data via EMAIL

Privacy Policy:

Private list